Back to catalog

INTELSAT 501

AliveCommunicationsGEO
NORAD 12474·PAYLOAD· XX

Launched May 23, 1981 from Cape Canaveral Space Force Station

Loading…

TLE

FreshSource: Space-Track

Epoch: Sep 13, 2026, 23:57 UTC

1 12474U 81050A   26256.99843641 -.00000248  00000-0  00000-0 0  9992
2 12474  10.8456 324.1395 0006302 266.0195  89.6648  0.98853284138540

Track INTELSAT 501 in real time with AllMySat

Download on the App Store